• In Portugal
  • List of Countries
  • For 7 days
  • Water Temperature
  • Satellite Maps
  • Weather Map
  • Weather Widgets
  • user-avatar
    Login

    Hourly Weather Sierpnica

    Today, 18 July, Wednesday

    Time Temperature Precipitation Wind Pressure Humidity
    00:00 +15°C° 0.1 mm 4 mps 705 mmHg 94%
    01:00 +15°C° 0 mm 4 mps 705 mmHg 94%
    02:00 +15°C° 0.1 mm 4 mps 705 mmHg 94%
    03:00 +14°C° 0.1 mm 5 mps 705 mmHg 94%
    04:00 +14°C° 0.1 mm 5 mps 705 mmHg 94%
    05:00 +15°C° 0.5 mm 5 mps 705 mmHg 93%
    06:00 +15°C° 0.5 mm 6 mps 705 mmHg 93%
    07:00 +15°C° 0.5 mm 6 mps 705 mmHg 92%
    08:00 +15°C° 1 mm 6 mps 706 mmHg 92%
    09:00 +15°C° 1 mm 6 mps 706 mmHg 92%
    10:00 +15°C° 1 mm 7 mps 706 mmHg 92%
    11:00 +15°C° 0.7 mm 7 mps 706 mmHg 91%
    12:00 +16°C° 0.7 mm 7 mps 706 mmHg 91%
    13:00 +16°C° 0.7 mm 7 mps 707 mmHg 91%
    14:00 +16°C° 0.5 mm 6 mps 707 mmHg 90%
    15:00 +16°C° 0.5 mm 6 mps 707 mmHg 89%
    16:00 +17°C° 0.5 mm 5 mps 707 mmHg 89%
    17:00 +16°C° 0.4 mm 5 mps 708 mmHg 89%
    18:00 +17°C° 0.4 mm 4 mps 708 mmHg 90%
    19:00 +17°C° 0.4 mm 3 mps 708 mmHg 91%
    20:00 +17°C° 0.3 mm 3 mps 708 mmHg 92%
    21:00 +16°C° 0.3 mm 3 mps 708 mmHg 92%
    22:00 +16°C° 0.3 mm 3 mps 709 mmHg 93%
    23:00 +16°C° 0.1 mm 3 mps 709 mmHg 93%

    Tomorrow, 19 July, Thursday

    Time Temperature Precipitation Wind Pressure Humidity
    00:00 +14°C° 0.1 mm 3 mps 709 mmHg 94%
    01:00 +14°C° 0.1 mm 3 mps 709 mmHg 94%
    02:00 +14°C° 0 mm 3 mps 709 mmHg 94%
    03:00 +14°C° 0 mm 3 mps 709 mmHg 95%
    04:00 +14°C° 0 mm 3 mps 709 mmHg 95%
    05:00 +14°C° 0 mm 4 mps 709 mmHg 93%
    06:00 +15°C° 0 mm 5 mps 709 mmHg 90%
    07:00 +16°C° 0 mm 5 mps 709 mmHg 88%
    08:00 +16°C° 0.1 mm 5 mps 710 mmHg 85%
    09:00 +17°C° 0.1 mm 5 mps 710 mmHg 82%
    10:00 +19°C° 0.1 mm 5 mps 710 mmHg 79%
    11:00 +19°C° 0.3 mm 5 mps 710 mmHg 79%
    12:00 +19°C° 0.3 mm 5 mps 710 mmHg 79%
    13:00 +19°C° 0.3 mm 4 mps 710 mmHg 79%
    14:00 +19°C° 0.2 mm 4 mps 710 mmHg 79%
    15:00 +19°C° 0.2 mm 4 mps 710 mmHg 79%
    16:00 +20°C° 0.2 mm 4 mps 710 mmHg 78%
    17:00 +19°C° 0.1 mm 4 mps 710 mmHg 80%
    18:00 +19°C° 0.1 mm 3 mps 710 mmHg 82%
    19:00 +18°C° 0.1 mm 3 mps 710 mmHg 84%
    20:00 +17°C° 0 mm 3 mps 710 mmHg 88%
    21:00 +16°C° 0 mm 2 mps 710 mmHg 91%
    22:00 +15°C° 0 mm 2 mps 710 mmHg 94%
    23:00 +15°C° 0 mm 2 mps 710 mmHg 94%

    Day after tomorrow, 20 July, Friday

    Time Temperature Precipitation Wind Pressure Humidity
    00:00 +15°C° 0 mm 2 mps 710 mmHg 94%
    01:00 +15°C° 0 mm 2 mps 710 mmHg 94%
    02:00 +15°C° 0 mm 2 mps 710 mmHg 95%
    03:00 +14°C° 0 mm 2 mps 710 mmHg 95%
    04:00 +14°C° 0 mm 2 mps 710 mmHg 95%
    05:00 +15°C° 0 mm 2 mps 710 mmHg 91%
    06:00 +16°C° 0 mm 3 mps 710 mmHg 88%
    07:00 +16°C° 0 mm 3 mps 710 mmHg 84%
    08:00 +18°C° 0 mm 3 mps 710 mmHg 78%
    09:00 +19°C° 0 mm 3 mps 710 mmHg 72%
    10:00 +20°C° 0 mm 3 mps 711 mmHg 67%
    11:00 +21°C° 0 mm 3 mps 711 mmHg 63%
    12:00 +22°C° 0 mm 3 mps 710 mmHg 60%
    13:00 +24°C° 0 mm 3 mps 710 mmHg 57%
    14:00 +24°C° 0 mm 2 mps 710 mmHg 56%
    15:00 +24°C° 0 mm 2 mps 710 mmHg 54%
    16:00 +25°C° 0 mm 2 mps 709 mmHg 53%
    17:00 +23°C° 0 mm 2 mps 709 mmHg 58%
    18:00 +21°C° 0 mm 2 mps 709 mmHg 64%
    19:00 +21°C° 0 mm 1 mps 709 mmHg 69%
    20:00 +19°C° 0 mm 1 mps 708 mmHg 73%
    21:00 +18°C° 0 mm 1 mps 708 mmHg 77%
    22:00 +15°C° 0 mm 1 mps 708 mmHg 81%
    23:00 +15°C° 0 mm 1 mps 708 mmHg 82%

    21 July, Saturday

    Time Temperature Precipitation Wind Pressure Humidity
    00:00 +15°C° 0 mm 1 mps 708 mmHg 84%
    01:00 +14°C° 0 mm 1 mps 708 mmHg 85%
    02:00 +14°C° 0 mm 1 mps 707 mmHg 85%
    03:00 +14°C° 0 mm 1 mps 707 mmHg 86%
    04:00 +14°C° 0 mm 1 mps 707 mmHg 86%
    05:00 +15°C° 0 mm 1 mps 707 mmHg 81%
    06:00 +18°C° 0 mm 1 mps 707 mmHg 76%
    07:00 +19°C° 0 mm 1 mps 707 mmHg 72%
    08:00 +21°C° 0 mm 1 mps 708 mmHg 66%
    09:00 +22°C° 0 mm 1 mps 708 mmHg 61%
    10:00 +23°C° 0 mm 2 mps 708 mmHg 56%
    11:00 +24°C° 0 mm 2 mps 708 mmHg 54%
    12:00 +25°C° 0 mm 2 mps 708 mmHg 51%
    13:00 +25°C° 0 mm 2 mps 707 mmHg 49%
    14:00 +25°C° 0 mm 1 mps 707 mmHg 49%
    15:00 +25°C° 0 mm 1 mps 707 mmHg 50%
    16:00 +25°C° 0 mm 1 mps 707 mmHg 51%
    17:00 +24°C° 0.1 mm 1 mps 707 mmHg 58%
    18:00 +23°C° 0.1 mm 1 mps 707 mmHg 65%
    19:00 +20°C° 0.1 mm 2 mps 706 mmHg 72%
    20:00 +20°C° 0 mm 1 mps 706 mmHg 74%
    21:00 +19°C° 0 mm 1 mps 706 mmHg 76%
    22:00 +18°C° 0 mm 1 mps 706 mmHg 78%
    23:00 +16°C° 0.1 mm 1 mps 706 mmHg 79%

    22 July, Sunday

    Time Temperature Precipitation Wind Pressure Humidity
    00:00 +16°C° 0.1 mm 1 mps 706 mmHg 80%
    01:00 +15°C° 0.1 mm 1 mps 706 mmHg 81%
    02:00 +15°C° 0 mm 1 mps 706 mmHg 82%
    03:00 +15°C° 0 mm 1 mps 706 mmHg 82%
    04:00 +13°C° 0 mm 0 mps 705 mmHg 83%
    05:00 +16°C° 0 mm 1 mps 706 mmHg 79%
    06:00 +18°C° 0 mm 1 mps 706 mmHg 76%
    07:00 +19°C° 0 mm 1 mps 706 mmHg 73%
    08:00 +20°C° 0 mm 1 mps 707 mmHg 70%
    09:00 +20°C° 0 mm 2 mps 707 mmHg 67%
    10:00 +21°C° 0 mm 2 mps 707 mmHg 64%
    11:00 +22°C° 0 mm 3 mps 707 mmHg 62%
    12:00 +24°C° 0 mm 3 mps 707 mmHg 59%
    13:00 +25°C° 0 mm 4 mps 707 mmHg 56%
    14:00 +23°C° 0.3 mm 4 mps 707 mmHg 57%
    15:00 +23°C° 0.3 mm 4 mps 707 mmHg 57%
    16:00 +23°C° 0.3 mm 4 mps 707 mmHg 57%
    17:00 +22°C° 0.1 mm 4 mps 707 mmHg 61%
    18:00 +20°C° 0.1 mm 3 mps 707 mmHg 65%
    19:00 +19°C° 0.1 mm 3 mps 707 mmHg 69%
    20:00 +18°C° 0 mm 2 mps 707 mmHg 71%
    21:00 +17°C° 0 mm 2 mps 708 mmHg 73%
    22:00 +16°C° 0 mm 2 mps 708 mmHg 75%
    23:00 +15°C° 0 mm 2 mps 708 mmHg 76%

    23 July, Monday

    Time Temperature Precipitation Wind Pressure Humidity
    00:00 +15°C° 0 mm 2 mps 708 mmHg 77%
    01:00 +14°C° 0 mm 2 mps 708 mmHg 79%
    02:00 +14°C° 0 mm 2 mps 708 mmHg 81%
    03:00 +14°C° 0 mm 2 mps 709 mmHg 83%
    04:00 +13°C° 0 mm 2 mps 709 mmHg 86%
    05:00 +15°C° 0 mm 2 mps 709 mmHg 82%
    06:00 +16°C° 0 mm 2 mps 710 mmHg 79%
    07:00 +18°C° 0 mm 2 mps 710 mmHg 76%
    08:00 +19°C° 0 mm 3 mps 710 mmHg 71%
    09:00 +20°C° 0 mm 3 mps 710 mmHg 66%
    10:00 +21°C° 0 mm 3 mps 711 mmHg 61%
    11:00 +22°C° 0 mm 3 mps 711 mmHg 58%
    12:00 +24°C° 0 mm 3 mps 711 mmHg 56%
    13:00 +23°C° 0 mm 4 mps 710 mmHg 53%
    14:00 +23°C° 0 mm 4 mps 710 mmHg 53%
    15:00 +23°C° 0 mm 4 mps 710 mmHg 54%
    16:00 +23°C° 0 mm 4 mps 710 mmHg 54%
    17:00 +22°C° 0 mm 3 mps 710 mmHg 59%
    18:00 +21°C° 0 mm 2 mps 710 mmHg 65%
    19:00 +19°C° 0 mm 2 mps 710 mmHg 70%
    20:00 +18°C° 0 mm 2 mps 710 mmHg 73%
    21:00 +18°C° 0 mm 1 mps 710 mmHg 76%
    22:00 +15°C° 0 mm 1 mps 710 mmHg 79%
    23:00 +15°C° 0 mm 1 mps 710 mmHg 81%
    Show more